LAN1498 SCEL-SCSE

Flight info

Callsign LAN1498
Flight time 0h 41m
Altitude 28000
Route DONTI UQ802 KUGAP KUGAP5
Aircraft A320/M-SDE3FGHIRWY/LB1

Departure

Time 2026-04-21 13:16
Airport Comodoro Arturo Merino Benítez International Airport (SCEL)

Arrival

Time 2026-04-21 13:57
Airport La Florida Airport (SCSE)
Time Latitude Longitude Altitude Speed Heading
2026-04-21 13:09 -33.39524 -70.79050 1565 ft 2 kts 192°
2026-04-21 13:09 -33.39511 -70.79046 1565 ft 2 kts 191°
2026-04-21 13:09 -33.39498 -70.79046 1565 ft 2 kts 132°
2026-04-21 13:09 -33.39493 -70.79053 1564 ft 0 kts 95°
2026-04-21 13:10 -33.39493 -70.79050 1564 ft 3 kts 94°
2026-04-21 13:10 -33.39492 -70.78975 1564 ft 10 kts 89°
2026-04-21 13:11 -33.39484 -70.78902 1564 ft 8 kts 65°
2026-04-21 13:11 -33.39447 -70.78866 1564 ft 6 kts 26°
2026-04-21 13:11 -33.39408 -70.78841 1564 ft 9 kts 30°
2026-04-21 13:11 -33.39329 -70.78797 1564 ft 16 kts 10°
2026-04-21 13:12 -33.39197 -70.78799 1564 ft 21 kts 355°
2026-04-21 13:12 -33.39048 -70.78809 1564 ft 22 kts 358°
2026-04-21 13:12 -33.38893 -70.78814 1564 ft 23 kts 358°
2026-04-21 13:12 -33.38733 -70.78824 1564 ft 23 kts 357°
2026-04-21 13:13 -33.38569 -70.78830 1564 ft 24 kts 358°
2026-04-21 13:13 -33.38402 -70.78843 1564 ft 24 kts 355°
2026-04-21 13:13 -33.38232 -70.78852 1564 ft 25 kts 357°
2026-04-21 13:13 -33.38061 -70.78861 1564 ft 25 kts 357°
2026-04-21 13:14 -33.37886 -70.78871 1565 ft 25 kts 358°
2026-04-21 13:14 -33.37712 -70.78881 1564 ft 23 kts 358°
2026-04-21 13:14 -33.37629 -70.78798 1564 ft 15 kts 90°
2026-04-21 13:14 -33.37645 -70.78692 1565 ft 11 kts 135°
2026-04-21 13:15 -33.37708 -70.78666 1565 ft 9 kts 180°
2026-04-21 13:15 -33.37882 -70.78654 1563 ft 58 kts 176°
2026-04-21 13:15 -33.38524 -70.78622 1565 ft 123 kts 178°
2026-04-21 13:15 -33.39557 -70.78566 1565 ft 172 kts 177°
2026-04-21 13:16 -33.40806 -70.78485 2010 ft 183 kts 178°
2026-04-21 13:16 -33.42084 -70.78406 2712 ft 184 kts 177°
2026-04-21 13:16 -33.43400 -70.78323 3258 ft 194 kts 176°
2026-04-21 13:16 -33.44799 -70.78238 3520 ft 216 kts 177°
2026-04-21 13:17 -33.46412 -70.78155 3772 ft 245 kts 177°
2026-04-21 13:17 -33.48216 -70.78079 4250 ft 265 kts 185°
2026-04-21 13:17 -33.49912 -70.78909 4997 ft 274 kts 220°
2026-04-21 13:17 -33.50974 -70.80785 5790 ft 278 kts 256°
2026-04-21 13:18 -33.51007 -70.83064 6660 ft 274 kts 286°
2026-04-21 13:18 -33.50401 -70.85211 7569 ft 272 kts 294°
2026-04-21 13:18 -33.49734 -70.87332 8465 ft 273 kts 294°
2026-04-21 13:18 -33.49059 -70.89468 8864 ft 273 kts 294°
2026-04-21 13:19 -33.48391 -70.91583 8995 ft 271 kts 294°
2026-04-21 13:19 -33.47796 -70.93724 8997 ft 271 kts 288°
2026-04-21 13:19 -33.47263 -70.95885 9016 ft 269 kts 296°
2026-04-21 13:19 -33.46341 -70.97804 9017 ft 265 kts 312°
2026-04-21 13:20 -33.44952 -70.99264 9444 ft 268 kts 330°
2026-04-21 13:20 -33.43251 -71.00158 10338 ft 269 kts 341°
2026-04-21 13:20 -33.41401 -71.00898 10642 ft 292 kts 341°
2026-04-21 13:20 -33.39396 -71.01689 10824 ft 315 kts 341°
2026-04-21 13:21 -33.37238 -71.02536 10967 ft 338 kts 341°
2026-04-21 13:21 -33.34934 -71.03438 11098 ft 358 kts 341°
2026-04-21 13:21 -33.32527 -71.04376 11531 ft 367 kts 341°
2026-04-21 13:21 -33.30082 -71.05328 12110 ft 372 kts 341°
2026-04-21 13:22 -33.27609 -71.06292 12680 ft 376 kts 341°
2026-04-21 13:22 -33.25106 -71.07271 13265 ft 381 kts 341°
2026-04-21 13:22 -33.22571 -71.08260 13824 ft 385 kts 341°
2026-04-21 13:22 -33.20041 -71.09246 14324 ft 389 kts 340°
2026-04-21 13:23 -33.17451 -71.10256 14841 ft 393 kts 340°
2026-04-21 13:23 -33.14847 -71.11273 15353 ft 395 kts 340°
2026-04-21 13:23 -33.12225 -71.12296 15840 ft 398 kts 340°
2026-04-21 13:23 -33.09585 -71.13325 16336 ft 401 kts 339°
2026-04-21 13:24 -33.06918 -71.14365 16833 ft 404 kts 339°
2026-04-21 13:24 -33.04241 -71.15406 17345 ft 407 kts 339°
2026-04-21 13:24 -33.01545 -71.16453 17839 ft 409 kts 339°
2026-04-21 13:24 -32.98823 -71.17512 18324 ft 412 kts 338°
2026-04-21 13:25 -32.96073 -71.18507 18740 ft 417 kts 343°
2026-04-21 13:25 -32.93170 -71.19019 19142 ft 425 kts 352°
2026-04-21 13:25 -32.90204 -71.19097 19549 ft 429 kts 355°
2026-04-21 13:25 -32.87208 -71.19151 19945 ft 431 kts 354°
2026-04-21 13:26 -32.84196 -71.19209 20336 ft 434 kts 354°
2026-04-21 13:26 -32.81177 -71.19270 20717 ft 436 kts 354°
2026-04-21 13:26 -32.78123 -71.19327 21100 ft 439 kts 354°
2026-04-21 13:26 -32.75071 -71.19384 21461 ft 441 kts 354°
2026-04-21 13:27 -32.71990 -71.19442 21843 ft 443 kts 354°
2026-04-21 13:27 -32.68903 -71.19500 22214 ft 445 kts 354°
2026-04-21 13:27 -32.65799 -71.19555 22577 ft 447 kts 354°
2026-04-21 13:27 -32.62671 -71.19609 22931 ft 449 kts 354°
2026-04-21 13:28 -32.59539 -71.19667 23269 ft 452 kts 354°
2026-04-21 13:28 -32.56394 -71.19727 23605 ft 454 kts 354°
2026-04-21 13:28 -32.53229 -71.19787 23891 ft 456 kts 354°
2026-04-21 13:28 -32.50061 -71.19845 24160 ft 457 kts 354°
2026-04-21 13:29 -32.46872 -71.19900 24434 ft 458 kts 354°
2026-04-21 13:29 -32.43675 -71.19953 24696 ft 460 kts 353°
2026-04-21 13:29 -32.40467 -71.20011 24984 ft 461 kts 353°
2026-04-21 13:29 -32.37264 -71.20069 25374 ft 459 kts 353°
2026-04-21 13:30 -32.34078 -71.20127 25766 ft 458 kts 353°
2026-04-21 13:30 -32.30896 -71.20184 26150 ft 456 kts 353°
2026-04-21 13:30 -32.27730 -71.20239 26558 ft 455 kts 353°
2026-04-21 13:30 -32.24564 -71.20296 26947 ft 453 kts 352°
2026-04-21 13:31 -32.21419 -71.20351 27387 ft 451 kts 352°
2026-04-21 13:31 -32.18283 -71.20407 27825 ft 450 kts 352°
2026-04-21 13:31 -32.15152 -71.20462 28098 ft 449 kts 352°
2026-04-21 13:31 -32.12017 -71.20523 28157 ft 453 kts 351°
2026-04-21 13:32 -32.05680 -71.20652 28143 ft 456 kts 352°
2026-04-21 13:32 -31.99319 -71.20767 28129 ft 458 kts 351°
2026-04-21 13:33 -31.92955 -71.20876 28149 ft 457 kts 351°
2026-04-21 13:33 -31.86601 -71.20990 28148 ft 457 kts 351°
2026-04-21 13:34 -31.80248 -71.21098 28149 ft 457 kts 351°
2026-04-21 13:34 -31.74960 -71.21094 28150 ft 459 kts 354°
2026-04-21 13:35 -31.68545 -71.20701 28128 ft 463 kts 356°
2026-04-21 13:35 -31.61031 -71.20104 28129 ft 463 kts 355°
2026-04-21 13:36 -31.55684 -71.19742 28138 ft 462 kts 355°
2026-04-21 13:36 -31.49268 -71.19363 28138 ft 462 kts 355°
2026-04-21 13:37 -31.42852 -71.18992 28120 ft 462 kts 355°
2026-04-21 13:37 -31.36434 -71.18610 28131 ft 461 kts 354°
2026-04-21 13:38 -31.30023 -71.18226 28131 ft 461 kts 355°
2026-04-21 13:38 -31.23620 -71.17837 28088 ft 461 kts 355°
2026-04-21 13:39 -31.20464 -71.17647 27084 ft 460 kts 355°
2026-04-21 13:39 -31.17261 -71.17454 25870 ft 450 kts 355°
2026-04-21 13:39 -31.14204 -71.17263 24760 ft 440 kts 355°
2026-04-21 13:39 -31.11103 -71.17071 23673 ft 439 kts 355°
2026-04-21 13:40 -31.08075 -71.16886 22440 ft 433 kts 356°
2026-04-21 13:40 -31.05082 -71.16707 21467 ft 431 kts 356°
2026-04-21 13:40 -31.01128 -71.16480 20442 ft 429 kts 357°
2026-04-21 13:40 -30.99108 -71.16365 19917 ft 428 kts 357°
2026-04-21 13:41 -30.96136 -71.16193 19148 ft 428 kts 358°
2026-04-21 13:41 -30.93146 -71.16014 18442 ft 434 kts 358°
2026-04-21 13:41 -30.90172 -71.15832 17721 ft 432 kts 358°
2026-04-21 13:41 -30.87190 -71.15650 17039 ft 427 kts 359°
2026-04-21 13:42 -30.84236 -71.15472 16361 ft 422 kts 359°
2026-04-21 13:42 -30.81319 -71.15298 15680 ft 418 kts 360°
2026-04-21 13:42 -30.78432 -71.15125 15022 ft 413 kts
2026-04-21 13:42 -30.75575 -71.14951 14370 ft 408 kts
2026-04-21 13:43 -30.72714 -71.14778 13675 ft 404 kts
2026-04-21 13:43 -30.69962 -71.14613 13026 ft 399 kts
2026-04-21 13:43 -30.67209 -71.14451 12397 ft 393 kts
2026-04-21 13:43 -30.64463 -71.14291 11762 ft 387 kts
2026-04-21 13:44 -30.61837 -71.14141 11427 ft 375 kts
2026-04-21 13:44 -30.59295 -71.13994 11299 ft 357 kts
2026-04-21 13:44 -30.56876 -71.13850 11174 ft 341 kts
2026-04-21 13:44 -30.54559 -71.13711 11059 ft 326 kts
2026-04-21 13:45 -30.52340 -71.13576 10938 ft 312 kts
2026-04-21 13:45 -30.50219 -71.13448 10818 ft 300 kts
2026-04-21 13:45 -30.48172 -71.13325 10696 ft 289 kts
2026-04-21 13:45 -30.46197 -71.13206 10533 ft 280 kts
2026-04-21 13:46 -30.44273 -71.13089 10346 ft 275 kts
2026-04-21 13:46 -30.42370 -71.12975 10213 ft 273 kts
2026-04-21 13:46 -30.40475 -71.12864 10091 ft 272 kts
2026-04-21 13:46 -30.38586 -71.12754 9924 ft 272 kts
2026-04-21 13:47 -30.36696 -71.12642 9581 ft 271 kts
2026-04-21 13:47 -30.34822 -71.12532 9284 ft 269 kts
2026-04-21 13:47 -30.32951 -71.12421 8992 ft 268 kts
2026-04-21 13:47 -30.31089 -71.12310 8687 ft 267 kts
2026-04-21 13:48 -30.29237 -71.12202 8408 ft 267 kts
2026-04-21 13:48 -30.27386 -71.12092 8112 ft 266 kts
2026-04-21 13:48 -30.25534 -71.11983 7823 ft 266 kts
2026-04-21 13:48 -30.23687 -71.11872 7529 ft 265 kts
2026-04-21 13:49 -30.21852 -71.11729 7239 ft 264 kts
2026-04-21 13:49 -30.20021 -71.11569 6954 ft 263 kts
2026-04-21 13:49 -30.18201 -71.11406 6662 ft 261 kts
2026-04-21 13:49 -30.16411 -71.11246 6360 ft 253 kts
2026-04-21 13:50 -30.14710 -71.11096 6090 ft 237 kts
2026-04-21 13:50 -30.13113 -71.10953 5843 ft 224 kts
2026-04-21 13:50 -30.11646 -71.10527 5601 ft 218 kts 22°
2026-04-21 13:50 -30.10340 -71.09686 5359 ft 211 kts 30°
2026-04-21 13:51 -30.09119 -71.08828 5161 ft 199 kts 30°
2026-04-21 13:51 -30.07966 -71.08022 4918 ft 188 kts 30°
2026-04-21 13:51 -30.06878 -71.07266 4708 ft 176 kts 30°
2026-04-21 13:51 -30.05864 -71.06563 4499 ft 164 kts 29°
2026-04-21 13:52 -30.04918 -71.05906 4328 ft 153 kts 30°
2026-04-21 13:52 -30.04020 -71.05294 4150 ft 148 kts 26°
2026-04-21 13:52 -30.03078 -71.04860 3958 ft 146 kts 15°
2026-04-21 13:52 -30.02096 -71.04644 3778 ft 145 kts
2026-04-21 13:53 -30.01088 -71.04641 3595 ft 145 kts 354°
2026-04-21 13:53 -30.00089 -71.04855 3416 ft 145 kts 344°
2026-04-21 13:53 -29.99160 -71.05265 3214 ft 145 kts 334°
2026-04-21 13:53 -29.98291 -71.05884 3034 ft 145 kts 323°
2026-04-21 13:54 -29.97556 -71.06664 2849 ft 146 kts 313°
2026-04-21 13:54 -29.96959 -71.07599 2666 ft 145 kts 301°
2026-04-21 13:54 -29.96495 -71.08638 2470 ft 145 kts 297°
2026-04-21 13:54 -29.96049 -71.09671 2262 ft 144 kts 298°
2026-04-21 13:55 -29.95607 -71.10706 2065 ft 143 kts 297°
2026-04-21 13:55 -29.95176 -71.11717 1876 ft 142 kts 296°
2026-04-21 13:55 -29.94739 -71.12733 1687 ft 141 kts 297°
2026-04-21 13:55 -29.94306 -71.13746 1503 ft 141 kts 297°
2026-04-21 13:56 -29.93870 -71.14762 1333 ft 142 kts 296°
2026-04-21 13:56 -29.93436 -71.15782 1146 ft 142 kts 297°
2026-04-21 13:56 -29.92999 -71.16803 952 ft 142 kts 297°
2026-04-21 13:56 -29.92562 -71.17821 761 ft 142 kts 297°
2026-04-21 13:57 -29.92120 -71.18847 578 ft 143 kts 297°
2026-04-21 13:57 -29.91686 -71.19850 470 ft 124 kts 296°
2026-04-21 13:57 -29.91500 -71.20287 475 ft 14 kts 301°
2026-04-21 13:57 -29.91473 -71.20362 475 ft 7 kts 199°
2026-04-21 13:58 -29.91493 -71.20323 477 ft 8 kts 113°
2026-04-21 13:58 -29.91550 -71.20280 478 ft 13 kts 188°
2026-04-21 13:58 -29.91641 -71.20326 480 ft 8 kts 205°
2026-04-21 13:58 -29.91661 -71.20338 478 ft 0 kts 206°